Location: Unspecified
(54.1780°N, 0.0000°E)
Time: 00:11:00
(UTC+00:00)

ISS - Visible Passes

Search period start: 27 May 2019 00:00
Search period end: 06 June 2019 00:00
Orbit: 408 x 418 km, 51.6° (Epoch: 27 May)

Date Brightness Start Highest point End Pass type
(mag) Time Alt. Az. Time Alt. Az. Time Alt. Az.
27 May -3.4 21:22:31 10° W 21:25:45 47° SSW 21:29:00 10° ESE visible
27 May -2.2 22:59:26 10° W 23:01:57 20° SSW 23:02:08 20° SSW visible
28 May -2.5 22:09:48 10° W 22:12:39 26° SSW 22:14:15 18° SSE visible
29 May -2.9 21:20:15 10° W 21:23:18 34° SSW 21:26:23 10° SE visible
29 May -1.4 22:58:17 10° WSW 22:59:13 11° SW 22:59:13 11° SW visible
30 May -1.7 22:07:55 10° WSW 22:10:02 16° SW 22:11:23 13° S visible
31 May -2.1 21:18:06 10° W 21:20:43 21° SSW 21:23:21 10° SSE visible
02 Jun -1.3 21:16:32 10° WSW 21:17:58 12° SW 21:19:24 10° SSW visible
